Hundvaag 1 weather for Mar 1995
Month no. 93
Obs.
Da.
Temp. Dew Point Precip. Wind
Speed
Wind gusts Cloud cover Press. Humidity Wind dir. Sunny OPT
01.03.1995 3,0   7,6     1       1  
02.03.1995 0,9   4,0     0       1  
03.03.1995 -0,3   0,3     3       1  
04.03.1995 -1,1   0,5     10       1  
05.03.1995 2,0   0,0     1       1  
06.03.1995 2,0   3,6     1          
07.03.1995 2,5   1,1     1          
08.03.1995 2,7   3,8     0          
09.03.1995 1,6   2,9     3       1  
10.03.1995 1,7   0,0     9       1  
11.03.1995 3,8   0,0     2       1  
12.03.1995 3,6   0,0     0          
13.03.1995 4,9   0,0     0          
14.03.1995 3,1   0,0     0          
15.03.1995 -1,8   0,1     0       1  
16.03.1995 0,1   0,0     9       1  
17.03.1995 1,8   7,4     0       1  
18.03.1995 2,8   11,0     1       1  
19.03.1995 1,9   8,2     0          
20.03.1995 2,9   5,8     8       1  
21.03.1995 1,2   1,1     10       1  
22.03.1995 2,4   2,3     0          
23.03.1995 4,3   11,0     0          
24.03.1995 4,0   8,8     0          
25.03.1995 2,2   13,0     8       1  
26.03.1995 2,0   8,4     9       1  
27.03.1995 -0,3   1,9     10       1  
28.03.1995 -2,0   1,3     2       1  
29.03.1995 -1,1   0,0     10       1  
30.03.1995 -1,4   0,0     8          
31.03.1995 5,1   13,5     0          
Avrg/Sum 1,8   117,6     3,4       19